Vorticity
nan nan nan nan nan nan nan nan nan nan nan nan nan nan nan nan nan nan nan nan nan nan nan nan nan nan nan nan nan nan nan nan nan nan nan nan nan nan nan nan nan nan nan nan nan nan nan nan nan
nan -9 2 8 6 9 5 9 4 9 7 8 6 1 1 7 16 6 4 8 11 4 5 5 6 6 6 6 5 6 7 7 6 7 6 6 5 5 5 5 5 5 5 5 4 4 4 4 nan
nan 5 4 6 17 12 6 6 11 9 5 -4 1 3 9 9 7 4 11 2 4 8 7 6 7 7 6 5 6 6 6 6 6 6 5 5 5 5 5 4 4 4 4 4 4 4 4 4 nan
nan 12 11 5 15 11 11 14 9 1 -1 5 8 3 3 5 11 15 5 2 1 6 5 7 6 5 6 5 5 5 6 6 6 6 5 4 5 5 4 4 4 3 3 3 4 4 4 5 nan
nan 6 3 10 14 10 12 10 6 -0 2 9 3 6 3 7 14 8 2 3 2 7 6 6 5 5 6 6 6 6 7 6 6 6 5 4 3 4 4 4 3 4 3 3 4 4 4 4 nan
nan 7 3 19 12 9 15 4 3 4 5 5 8 4 4 10 9 6 9 4 7 2 5 5 5 5 5 6 6 5 6 6 5 3 4 4 4 4 3 3 3 4 4 4 4 4 5 4 nan
nan 5 4 7 -0 9 17 5 5 11 6 6 3 0 9 13 2 2 8 14 15 4 4 6 6 4 4 5 5 5 4 5 4 3 4 3 4 4 5 4 4 4 5 5 5 5 5 5 nan
nan 3 6 10 7 5 6 12 7 8 9 8 -3 7 15 12 4 1 2 12 6 4 5 5 7 5 4 5 5 5 4 4 3 2 8 4 6 7 7 9 8 4 6 6 6 5 6 7 nan
nan 5 11 10 10 13 6 6 7 10 8 5 8 19 19 7 7 3 4 -0 2 6 7 5 6 5 5 8 6 5 5 5 5 6 6 10 9 12 14 7 8 5 5 5 13 4 7 4 nan
nan 4 3 14 12 5 6 3 9 10 4 4 16 22 13 5 5 3 5 5 1 7 5 4 8 6 5 5 7 8 9 6 7 9 6 14 7 12 10 9 6 6 7 0 2 16 14 14 nan
nan 6 19 13 9 8 8 5 16 9 0 13 12 10 4 6 3 6 6 4 8 10 5 7 7 6 7 3 6 7 8 10 6 8 9 13 8 6 8 9 8 13 11 11 2 13 11 6 nan
nan 9 17 5 15 12 4 11 6 6 17 19 12 9 5 4 6 4 4 7 9 6 9 13 4 7 9 5 6 9 7 9 10 5 6 4 10 8 9 8 7 9 14 9 6 9 9 9 nan
nan 5 6 5 6 10 10 11 4 2 16 11 9 7 6 3 6 5 4 6 6 6 6 7 5 9 6 7 11 8 3 6 7 7 11 8 9 7 8 9 5 8 7 10 9 6 7 10 nan
nan -1 13 4 2 7 6 8 8 7 12 8 8 5 6 5 5 4 5 11 4 6 5 5 6 4 6 7 6 5 8 9 7 8 4 8 9 8 5 7 11 6 7 6 6 7 9 7 nan
nan 15 7 5 0 3 6 4 1 14 8 7 7 7 6 6 2 8 5 3 6 9 8 5 6 6 4 7 4 4 12 7 8 8 6 7 9 9 7 7 8 5 7 11 9 7 9 8 nan
nan 11 -1 -3 8 8 1 1 10 12 9 7 7 9 7 10 5 6 5 3 8 7 9 6 6 8 6 6 3 5 9 6 10 9 6 4 7 11 9 11 8 6 8 11 9 9 8 9 nan
nan 24 9 -1 6 5 8 4 13 8 10 8 8 7 6 11 5 9 8 2 6 5 9 4 8 9 6 5 7 6 6 8 9 8 6 5 7 6 7 9 8 6 10 8 5 7 8 7 nan
nan 9 13 9 9 11 4 7 11 15 8 8 9 4 6 4 7 10 10 7 6 5 6 6 7 8 7 6 6 9 6 7 10 8 6 5 8 6 10 9 7 8 10 8 7 8 9 7 nan
nan 18 -3 -0 20 14 7 20 13 9 6 7 8 6 9 3 7 5 7 10 6 8 4 6 6 7 6 6 7 10 7 8 9 8 8 6 5 5 9 12 7 9 8 6 8 9 9 11 nan
nan 2 6 5 16 13 10 15 18 6 6 9 7 9 5 5 9 3 6 11 6 7 5 8 7 5 4 5 6 9 8 9 9 9 6 8 7 5 9 8 7 9 8 7 8 9 10 9 nan
nan 3 0 15 12 -4 9 14 17 9 7 7 8 9 8 9 7 5 5 7 6 8 7 7 6 5 5 4 6 6 8 9 6 8 10 8 6 7 5 7 9 7 10 8 8 8 9 9 nan
nan 1 6 3 1 14 8 2 11 15 10 7 7 9 9 7 5 7 6 6 6 8 7 7 6 6 6 6 7 6 6 8 8 7 11 9 6 7 6 9 7 9 9 9 9 9 8 10 nan
nan -0 7 9 5 11 7 7 11 15 11 10 8 9 9 10 7 9 6 4 8 7 7 7 7 6 6 7 7 6 6 6 8 10 7 7 9 7 8 7 6 8 9 10 9 7 10 11 nan
nan 7 10 8 8 14 5 5 17 25 16 8 10 9 10 10 9 9 8 8 7 6 8 8 8 5 7 7 5 6 8 4 8 10 7 8 9 9 10 7 7 8 9 9 8 8 9 10 nan
nan 6 11 10 8 7 18 6 18 16 4 10 16 10 10 9 12 8 10 8 9 7 6 8 8 7 7 6 8 6 6 9 6 9 7 6 8 13 13 7 7 10 11 7 8 9 7 9 nan
nan 5 4 3 3 5 8 16 17 11 6 8 8 20 10 7 10 10 9 8 10 9 8 7 8 7 7 6 6 8 7 5 8 7 6 9 7 9 9 7 8 9 9 8 8 8 9 8 nan
nan 10 4 5 4 3 2 22 17 0 -11 20 30 13 9 10 10 10 8 9 9 9 8 8 8 8 8 7 7 7 8 7 6 7 7 6 7 8 10 8 12 9 8 7 7 9 7 7 nan
nan 7 10 8 9 1 4 10 8 3 13 17 19 14 10 10 9 10 10 9 8 9 9 9 8 10 8 7 7 9 9 7 4 8 10 8 9 9 8 7 12 9 8 7 9 9 7 7 nan
nan 7 5 6 8 10 6 4 11 3 13 19 15 18 11 9 8 10 11 10 9 8 9 9 8 9 8 9 9 9 9 7 8 6 7 8 7 9 8 12 10 9 8 7 7 8 11 7 nan
nan nan nan nan nan nan nan nan nan nan nan nan nan nan nan nan nan nan nan nan nan nan nan nan nan nan nan nan nan nan nan nan nan nan nan nan nan nan nan nan nan nan nan nan nan nan nan nan nan
CAPE
155 4 63 707 208 234 152 180 63 8 99 33 33 109 68 94 171 147 251 101 103 530 721 932 1897 1756 1230 1551 1748 1542 1792 1719 1257 1609 1630 1658 1628 1831 1815 1805 1767 1502 1386 1354 1288 1497 1334 1369 1263
282 358 873 915 320 148 164 63 129 80 11 23 55 89 41 17 62 103 88 292 165 478 805 885 1572 1393 1283 1163 1331 1496 1457 1658 1431 1686 1651 1649 1687 2037 1762 1733 1678 1316 1205 1207 1161 1030 1000 1080 1181
840 1383 377 60 42 162 47 82 113 27 26 62 88 108 40 60 62 130 121 241 469 676 866 1184 1435 1314 1310 1366 1670 1618 1807 1632 1541 1347 1440 1518 1662 1698 1717 1376 1389 1408 1377 1251 1215 1036 1018 955 973
1396 9 596 280 137 266 223 81 123 16 11 43 53 25 64 6 87 90 86 157 239 490 554 1461 1471 1283 837 1249 783 1181 1299 1344 1503 1543 1145 1672 1548 1634 1595 1759 1534 1438 1307 1290 1308 1276 1139 969 999
1187 3 22 12 209 107 160 281 121 177 240 101 200 161 53 23 67 57 116 163 107 400 523 1101 1608 985 1345 1545 714 1689 1769 1397 1350 1001 1509 1568 1662 1755 1642 1356 1210 1134 1027 1003 983 1071 1173 1149 1369
146 86 287 34 101 206 323 352 262 168 80 109 58 42 121 7 34 110 184 142 107 519 739 820 1117 564 1305 1317 631 1567 1792 1844 1596 1605 1708 1625 1457 1243 1117 974 762 670 713 772 809 977 1177 1350 1748
377 166 44 66 98 49 291 274 254 92 138 126 73 62 19 11 30 210 559 600 440 568 638 660 78 507 1331 1342 1696 1603 1226 1134 1241 1285 1268 1246 1120 1014 839 915 858 1202 1555 1589 1552 1665 2035 2300 2174
290 104 22 78 15 13 196 169 227 100 164 88 19 4 0 23 19 118 266 456 495 533 297 57 419 886 1292 1485 1489 1349 1008 814 802 891 1028 1130 1018 1150 1049 1726 2121 1855 1993 2093 2367 2441 2801 2957 3240
160 62 91 147 64 25 191 443 301 248 235 301 442 184 0 0 17 9 131 135 669 848 620 412 661 1166 2103 1413 811 1098 805 1081 1288 1336 851 1443 1950 1477 1314 1796 1946 2029 1901 2055 2059 2457 2725 2447 1323
76 133 39 60 70 50 51 22 60 229 272 204 372 136 0 5 1 0 0 0 406 444 602 314 21 472 1158 0 630 832 960 1376 2124 1848 2689 1649 756 444 1652 1606 2024 2379 2441 2437 866 1583 2344 500 453
18 0 0 36 16 68 76 23 51 173 184 335 348 134 0 25 0 93 9 0 447 242 789 519 5 261 153 579 1168 1824 1836 1562 2561 2439 850 2472 1330 1653 1469 2204 2238 2513 3021 2315 178 1294 1665 321 1325
3 1 47 4 7 9 62 5 264 279 197 412 211 0 0 0 1 48 15 0 60 115 129 12 50 530 859 739 725 1826 1612 350 1330 1522 627 1555 3333 2720 2507 2263 1618 2519 2987 2677 1935 2806 2848 1653 1484
2 75 18 0 22 0 1 127 479 312 224 450 246 47 3 0 10 0 12 54 62 250 245 415 638 1804 1597 2160 2609 524 1895 1225 594 1102 3184 2719 2921 2291 2565 3053 2779 2468 2231 2287 3305 3176 2933 2890 2780
1 10 112 125 3 36 11 0 38 15 108 436 321 167 58 0 13 0 43 79 95 492 234 204 346 1601 2241 2452 2659 2439 1141 2641 1114 1441 2757 3446 3036 799 1117 2550 2778 2692 2743 2657 2370 2994 3612 2552 1530
2 106 3 164 78 34 204 175 481 97 233 242 370 261 29 0 4 47 41 229 195 494 37 136 650 1387 2334 2529 2445 2766 2549 1374 2486 2337 3224 2868 3382 2952 1289 3389 2987 2778 3120 2973 3206 3118 2949 2187 2029
13 116 114 157 117 243 469 531 611 141 290 299 315 275 136 0 0 239 13 244 512 450 305 49 142 1410 1992 2633 3039 2944 880 2972 1942 2403 2603 2979 3309 3599 2815 2979 2968 3633 3817 3053 3006 2829 3171 3125 1973
9 232 239 202 109 24 524 325 139 218 359 352 362 283 210 177 2 193 66 140 276 772 510 343 1470 1495 2079 2568 2469 3228 2929 933 2494 1539 2262 2777 2819 2914 1871 3060 3766 4752 3772 3247 3288 3185 3004 2705 2207
142 193 78 81 118 104 379 198 0 417 423 396 386 358 347 290 372 474 434 146 264 863 669 988 2079 2581 2682 2072 3378 2896 2079 2439 2149 2256 2185 2235 2619 2899 3499 2549 3980 4494 4085 3719 3954 4112 3659 3587 3048
8 14 1 157 232 316 190 813 733 617 414 501 496 408 446 355 353 371 508 428 123 732 643 1393 2432 2956 2471 2194 2185 2526 1751 2192 1468 1923 2031 2010 2147 2571 3449 2814 3741 3747 4046 4328 3974 3305 3315 3662 3460
36 0 3 34 44 189 20 671 1050 830 645 405 426 487 404 408 371 526 485 541 124 941 1102 1377 2170 2781 2814 2661 2853 2859 2906 1496 2302 2181 2130 2021 1926 2239 2489 4019 4006 4412 3999 3708 3448 3814 3277 3611 3372
4 6 6 35 22 177 87 27 1179 1107 833 566 366 391 397 542 578 703 505 497 232 810 1137 1023 2296 2800 2700 2932 3052 3247 3203 2739 1861 1816 1907 2189 1899 2092 2711 3432 4116 4289 4088 3613 3913 4066 3872 2434 2412
0 2 17 36 38 98 260 259 124 1208 1084 718 616 416 350 434 712 891 855 943 721 795 1147 1165 1830 2634 2431 2927 2696 3118 2548 1951 1617 2520 2959 2735 1777 2065 2879 2828 3662 4324 4115 3965 3909 3657 3560 3117 1685
0 0 20 11 17 2 89 197 238 173 1195 808 558 582 380 512 621 760 651 988 601 739 788 1228 1646 2459 2280 2576 3149 2639 2747 2498 2496 2405 3248 2400 3480 3043 2755 2792 3359 4096 3947 4468 4204 3560 3520 2127 1331
0 0 2 40 50 36 23 51 174 215 567 972 576 522 639 420 474 977 942 1000 731 823 779 1014 1702 2059 2218 2272 2456 2943 2768 2429 2959 2600 2957 2645 2688 3061 3765 3231 3578 3615 4243 4251 3876 3477 2758 1832 1369
0 0 28 36 139 11 12 31 307 393 62 208 793 419 397 554 469 1109 944 1191 1018 1092 871 780 1795 1851 1840 2021 1802 2024 2447 3253 3367 3146 2990 3040 3053 3337 4362 4256 4021 4277 4190 3867 3526 2866 2379 1506 857
0 0 33 73 76 28 302 136 323 14 6 5 95 458 278 227 284 620 1097 1224 1289 1236 1171 989 1400 1828 1921 1464 1563 2013 2126 2003 2298 3356 2632 3112 3071 3630 4444 3978 3783 3856 3616 3182 3075 2888 1839 964 477
0 0 0 14 63 100 287 228 116 49 79 134 270 687 394 218 135 545 702 1130 1257 1142 1343 1302 1271 1570 1595 1574 1702 1800 2230 2150 1684 2658 2962 2500 3442 2535 3572 3320 3924 3628 3271 2698 2455 2201 1403 789 93
0 0 0 2 29 87 141 159 128 253 267 178 376 1071 830 445 113 405 692 1049 1109 1159 1292 1282 1377 1447 1881 2027 2345 2508 2222 2272 2251 3516 4065 3404 4309 4185 3164 3776 3722 3171 2744 2404 2150 1768 814 159 24
0 0 0 0 41 110 175 152 18 272 165 334 225 1299 1131 664 162 269 665 1152 1172 1067 1068 1068 1250 1869 2145 2348 2543 2575 2428 2244 2496 2600 3221 3616 3832 4012 4011 4120 3368 2915 2222 2013 1826 1113 371 0 0
0 0 0 2 52 77 99 94 2 0 16 199 231 1444 1261 833 191 209 470 1120 1244 1189 1150 1182 1342 1973 2183 2586 2765 2500 2487 2384 2574 2892 3001 3257 3633 3997 4067 4105 3128 2480 2124 1827 1599 1134 59 0 0